Weather History for Bentonville, AR

Change the Weather History Date:

Sunday, November 27, 2011

  Actual Average Record
Temperature  
Mean Temperature 38 °F -  
Max Temperature 42 °F 53 °F 75 °F (1960)
Min Temperature 35 °F 32 °F 10 °F (1975)
Degree Days  
Heating Degree Days 26    
Moisture  
Dew Point 26 °F    
Average Humidity 66    
Maximum Humidity 70    
Minimum Humidity 60    
Precipitation  
Precipitation 0.00 in - - ()
Sea Level Pressure  
Sea Level Pressure 30.14 in    
Wind  
Wind Speed 11 mph (NNW)    
Max Wind Speed 16 mph    
Max Gust Speed 25 mph    
Visibility 10 miles    
Events      
Averages and records for this station are not official NWS values.
T = Trace of Precipitation, MM = Missing Value Source: NWS Daily Summary

Daily Weather History Graph

Daily Weather History Graph

Search for Another Location

Airport:

Trip Planner

Search our weather history database for the weather conditions in past years. The results will help you decide how hot, cold, wet, or windy it might be!

Date:

Astronomy

Nov. 27, 2011 Rise Set
Actual Time 7:05 AM CST 5:02 PM CST
Civil Twilight 6:37 AM CST 5:30 PM CST
Nautical Twilight 6:06 AM CST 6:02 PM CST
Astronomical Twilight 5:35 AM CST 6:33 PM CST
Moon 9:30 AM CST (11/27) 7:42 PM CST (11/27)
Length of Visible Light 10h 53m
Length of Day
9h 57m
Waxing Crescent, 8% of the Moon is Illuminated
Nov 27
Waxing Crescent
Dec 2
First Quarter
Dec 10
Full
Dec 17
Last Quarter
Dec 24
New

Hourly Weather History & Observations

Time (CST) Temp. Windchill Dew Point Humidity Pressure Visibility Wind Dir Wind Speed Gust Speed Precip Events Conditions
12:15 AM 42.8 °F 35.8 °F 30.2 °F 61% 30.07 in 10.0 mi North 13.8 mph 25.3 mph N/A   Overcast
12:55 AM 41.0 °F 33.5 °F 30.2 °F 65% 30.08 in 10.0 mi NNW 13.8 mph 20.7 mph N/A   Overcast
1:15 AM 39.2 °F 31.6 °F 28.4 °F 65% 30.07 in 10.0 mi North 12.7 mph 25.3 mph N/A   Overcast
2:15 AM 39.2 °F 31.2 °F 28.4 °F 65% 30.08 in 10.0 mi North 13.8 mph 23.0 mph N/A   Overcast
2:55 AM 37.4 °F 29.3 °F 26.6 °F 65% 30.08 in 10.0 mi North 12.7 mph 20.7 mph N/A   Overcast
3:15 AM 37.4 °F 30.3 °F 28.4 °F 70% 30.09 in 10.0 mi North 10.4 mph - N/A   Overcast
3:35 AM 37.4 °F 30.3 °F 28.4 °F 70% 30.09 in 10.0 mi NNW 10.4 mph - N/A   Overcast
3:55 AM 37.4 °F 29.3 °F 28.4 °F 70% 30.09 in 10.0 mi NNW 12.7 mph - N/A   Overcast
4:15 AM 37.4 °F 29.3 °F 28.4 °F 70% 30.09 in 10.0 mi NNW 12.7 mph 16.1 mph N/A   Overcast
4:35 AM 37.4 °F 28.2 °F 26.6 °F 65% 30.10 in 10.0 mi North 16.1 mph 19.6 mph N/A   Overcast
4:55 AM 37.4 °F 31.4 °F 26.6 °F 65% 30.10 in 10.0 mi NNW 8.1 mph 18.4 mph N/A   Overcast
5:15 AM 37.4 °F 30.3 °F 26.6 °F 65% 30.10 in 10.0 mi North 10.4 mph 20.7 mph N/A   Overcast
5:35 AM 37.4 °F 29.3 °F 26.6 °F 65% 30.11 in 10.0 mi North 12.7 mph 17.3 mph N/A   Overcast
5:55 AM 35.6 °F 27.1 °F 26.6 °F 70% 30.11 in 10.0 mi NNW 12.7 mph 16.1 mph N/A   Overcast
6:15 AM 35.6 °F 28.6 °F 26.6 °F 70% 30.12 in 10.0 mi North 9.2 mph - N/A   Overcast
6:35 AM 35.6 °F 28.6 °F 26.6 °F 70% 30.12 in 10.0 mi NNW 9.2 mph - N/A   Overcast
6:55 AM 35.6 °F 28.6 °F 26.6 °F 70% 30.13 in 10.0 mi NNW 9.2 mph - N/A   Overcast
7:15 AM 35.6 °F 27.5 °F 26.6 °F 70% 30.13 in 10.0 mi NNW 11.5 mph - N/A   Overcast
7:35 AM 35.6 °F 29.2 °F 26.6 °F 70% 30.14 in 10.0 mi NNW 8.1 mph - N/A   Overcast
7:55 AM 35.6 °F 29.2 °F 26.6 °F 70% 30.14 in 10.0 mi NNW 8.1 mph - N/A   Overcast
8:15 AM 35.6 °F 28.0 °F 26.6 °F 70% 30.15 in 10.0 mi NNW 10.4 mph 16.1 mph N/A   Overcast
9:15 AM 37.4 °F 30.3 °F 26.6 °F 65% 30.17 in 10.0 mi North 10.4 mph 16.1 mph N/A   Overcast
9:35 AM 37.4 °F 28.2 °F 26.6 °F 65% 30.17 in 10.0 mi North 16.1 mph - N/A   Overcast
9:55 AM 37.4 °F 29.3 °F 26.6 °F 65% 30.17 in 10.0 mi North 12.7 mph 21.9 mph N/A   Overcast
10:15 AM 37.4 °F 28.9 °F 26.6 °F 65% 30.17 in 10.0 mi North 13.8 mph 21.9 mph N/A   Overcast
10:35 AM 37.4 °F 29.3 °F 26.6 °F 65% 30.17 in 10.0 mi North 12.7 mph 17.3 mph N/A   Overcast
10:55 AM 37.4 °F 29.8 °F 26.6 °F 65% 30.17 in 10.0 mi North 11.5 mph - N/A   Overcast
11:15 AM 37.4 °F 28.5 °F 26.6 °F 65% 30.17 in 10.0 mi North 15.0 mph 21.9 mph N/A   Overcast
11:55 AM 37.4 °F 29.3 °F 26.6 °F 65% 30.16 in 10.0 mi NNW 12.7 mph 18.4 mph N/A   Overcast
12:15 PM 37.4 °F 30.8 °F 26.6 °F 65% 30.15 in 10.0 mi NNW 9.2 mph - N/A   Overcast
12:35 PM 37.4 °F 29.8 °F 26.6 °F 65% 30.15 in 10.0 mi NNW 11.5 mph - N/A   Overcast
12:55 PM 37.4 °F 29.8 °F 26.6 °F 65% 30.15 in 10.0 mi North 11.5 mph 18.4 mph N/A   Overcast
1:15 PM 37.4 °F 30.8 °F 26.6 °F 65% 30.15 in 10.0 mi NW 9.2 mph - N/A   Overcast
1:35 PM 37.4 °F 30.8 °F 26.6 °F 65% 30.14 in 10.0 mi NW 9.2 mph - N/A   Overcast
1:55 PM 37.4 °F 30.3 °F 26.6 °F 65% 30.14 in 10.0 mi NNW 10.4 mph - N/A   Overcast
2:15 PM 37.4 °F 30.8 °F 26.6 °F 65% 30.14 in 10.0 mi North 9.2 mph - N/A   Overcast
2:35 PM 37.4 °F 30.8 °F 26.6 °F 65% 30.14 in 10.0 mi North 9.2 mph - N/A   Overcast
2:55 PM 37.4 °F 31.4 °F 24.8 °F 60% 30.14 in 10.0 mi NNW 8.1 mph 17.3 mph N/A   Overcast
3:15 PM 37.4 °F 29.8 °F 24.8 °F 60% 30.14 in 10.0 mi NNW 11.5 mph 16.1 mph N/A   Overcast
3:35 PM 37.4 °F 29.8 °F 26.6 °F 65% 30.15 in 10.0 mi NNW 11.5 mph - N/A   Overcast
4:15 PM 37.4 °F 30.3 °F 26.6 °F 65% 30.16 in 10.0 mi North 10.4 mph - N/A   Overcast
4:35 PM 37.4 °F 31.4 °F 24.8 °F 60% 30.16 in 10.0 mi NNW 8.1 mph - N/A   Overcast
4:55 PM 35.6 °F 28.6 °F 24.8 °F 65% 30.16 in 10.0 mi NNW 9.2 mph - N/A   Overcast
5:15 PM 35.6 °F 29.2 °F 24.8 °F 65% 30.16 in 10.0 mi NNW 8.1 mph - N/A   Overcast
5:35 PM 35.6 °F 28.0 °F 24.8 °F 65% 30.16 in 10.0 mi NNW 10.4 mph - N/A   Overcast
5:55 PM 35.6 °F 28.6 °F 24.8 °F 65% 30.17 in 10.0 mi NNW 9.2 mph - N/A   Overcast
6:15 PM 35.6 °F 28.0 °F 24.8 °F 65% 30.17 in 10.0 mi North 10.4 mph - N/A   Overcast
6:35 PM 35.6 °F 29.9 °F 24.8 °F 65% 30.17 in 10.0 mi North 6.9 mph - N/A   Overcast
6:55 PM 35.6 °F 30.7 °F 24.8 °F 65% 30.17 in 10.0 mi NNW 5.8 mph - N/A   Overcast
7:15 PM 35.6 °F 30.7 °F 24.8 °F 65% 30.17 in 10.0 mi North 5.8 mph - N/A   Overcast
7:35 PM 35.6 °F 29.2 °F 24.8 °F 65% 30.17 in 10.0 mi North 8.1 mph - N/A   Overcast
7:55 PM 35.6 °F 28.6 °F 24.8 °F 65% 30.17 in 10.0 mi North 9.2 mph - N/A   Overcast
8:35 PM 35.6 °F 28.0 °F 24.8 °F 65% 30.16 in 10.0 mi North 10.4 mph - N/A   Overcast
8:55 PM 35.6 °F 28.0 °F 24.8 °F 65% 30.16 in 10.0 mi North 10.4 mph - N/A   Overcast
9:15 PM 35.6 °F 29.9 °F 24.8 °F 65% 30.15 in 10.0 mi North 6.9 mph - N/A   Overcast
9:35 PM 35.6 °F 29.2 °F 24.8 °F 65% 30.14 in 10.0 mi North 8.1 mph - N/A   Overcast
9:55 PM 35.6 °F 28.0 °F 24.8 °F 65% 30.15 in 10.0 mi North 10.4 mph - N/A   Overcast
10:15 PM 35.6 °F 27.1 °F 24.8 °F 65% 30.14 in 10.0 mi North 12.7 mph 17.3 mph N/A   Overcast
10:35 PM 35.6 °F 29.9 °F 24.8 °F 65% 30.14 in 10.0 mi North 6.9 mph - N/A   Overcast
10:55 PM 35.6 °F 28.6 °F 24.8 °F 65% 30.14 in 10.0 mi North 9.2 mph - N/A   Overcast
11:15 PM 35.6 °F 28.0 °F 24.8 °F 65% 30.13 in 10.0 mi North 10.4 mph - N/A   Overcast
11:55 PM 35.6 °F 29.2 °F 24.8 °F 65% 30.12 in 10.0 mi North 8.1 mph - N/A   Overcast